Showing default

TIGER-8, 59120

Orbit data source: Space-Track

TIGER-8, 59120 is a payload satellite owned by OQ Tech (RW) in SSO that was launched on Mon, 04 Mar 2024 UTC via an FALCON 9 launch vehicle from the Air Force Western Test Range (AFWTR). Payload-class satellites include a variety of spacecraft equipped with specific instruments for various scientific and technological missions. These include communications satellites like Starlink; space stations such as the ISS; scientific satellites like the Hubble; Earth observation satellites from companies like Planet Labs, Umbra, and HawkEye 360; GPS; miniature CubeSats for education and research; and military/defense satellites.

Loading next visibility...
Identifier
59120, 2024-043Y
Orbit
SSO
Country
Flag of RWRW / RWA
Related business
Manufacturer
NanoAvionics
Mission
Operational Commercial Communications
Bus & Motor
CUBESAT 6U, Unknown motor
Mass
~10 kg wet, ~10 kg dry
Launch date (UTC)
2024-03-04 (2 years ago)
Launch vehicle
FALCON 9
Launch site
Air Force Western Test Range (AFWTR)
Object type
Payload
Rocket body
Debris
Shape & HBR
Box + 2 Pan, 0.1 m
Radar Cross Section
0.080 m², Small (<0.1 m²)

Expand to show TLE details & history
Last TLE update: 6 hours ago

TLE from 6 hours ago
0 TIGER-8
1 59120U 24043Y   26036.79783264  .00017014  00000-0  40257-3 0  9997
2 59120  97.5349 180.6671 0007344 324.1560  35.9193 15.41845313107524
Epoch: 2026-02-05T19:08Z
TLE epoch observation values (Epoch: 2026-02-05T19:08:52.740Z)
Latitude
0.00001°
Longitude
117.50245°
Altitude
439.724 km
Speed
7.65 km/s
True Right ascension
12h 02m 40s
True Declination
0° 00' 00"
Sunlit
Object was in full shadow at epoch
Visualization orbit readout
Latitude
Unknown
Longitude
Unknown
Altitude
Unknown
Speed
Unknown
Apparent Right ascension
Unknown
Apparent Declination
Unknown
Sunlit
N/A
Visualization observer readout
Local Sidereal Time
03:13:07
Azimuth
Unknown
Elevation
Unknown
Doppler factor
Unknown
Orbital elements
Apogee altitude
442.611 km
Perigee altitude
432.6 km
Semi-major axis
6,815.743 km
Eccentricity
0.00073
Inclination
97.5349°
RAAN
180.6671°
Arg. of periapsis
324.156°
True anomaly
35.96871°
Mean anomaly
35.9193°
Eccentric anomaly
35.944°
Mean motion
3.85721 °/min
Orbital period
93.33 mins
BSTAR
0.00040257
Loading maneuver chart data...
Computing Atmospheric mass density...
Loading historical data...
Loading historical data...
Loading historical data...
Loading historical data...
Loading historical data...
Loading historical data...
Loading historical data...

Documentation

Showing up to 5 results
|